DELTA 1 DEB, 10708

Orbit data source: Space-Track

DELTA 1 DEB, 10708 is space debris in SSO originally from a launch on Thu, 29 Jul 1976 UTC launched from the Air Force Western Test Range (AFWTR). Debris objects in space refer to the collection of defunct objects orbiting the Earth. Examples of debris include non-operational satellites, rocket bodies, and fragments generated from explosions, collisions, or faulty payload assembly.

Loading next visibility...
Identifier
10708, 1976-077AD
Orbit
SSO
Last TLE update
17 hours ago
Origin
Manufacturer
Unknown
Mission
Spacecraft
Bus & Motor
Unknown
Mass
Unknown
Launch date (UTC)
1976-07-29 (49 years ago)
Launch vehicle
Unknown
Launch site
Air Force Western Test Range (AFWTR)
Object type
Payload
Rocket body
Debris
Shape & HBR
Unknown
Radar Cross Section
Small (<0.1 m²)

Expand to show TLE details & history

TLE from 17 hours ago
0 DELTA 1 DEB
1 10708U 76077AD  25128.64884863  .00000511  00000-0  28967-2 0  9999
2 10708 101.2145 145.0430 0165988  92.9230  31.5727 12.63092824236767
Epoch: 2025-05-08T15:34Z
Definitive object data (Epoch: 2025-05-08T15:34:20.521Z)
Latitude
53.08141°
Longitude
-120.03638°
Altitude
1,309.124 km
Speed
7.258 km/s
True Right ascension
22h 41m 03s
True Declination
52° 55' 41"
Sunlit
Object was in daylight at TLE epoch
Visualization TLE readout
Latitude
10.84362°
Longitude
43.23794°
Altitude
1,388.508 km
Speed
7.177 km/s
Apparent Right ascension
07h 35m 45s
Apparent Declination
-15° 00' 30"
Sunlit
Object is in daylight
Visualization observer readout
Local Sidereal Time
16:14:37
Azimuth
284.88° WNW
Elevation
-39.757°
Doppler factor
1
Orbital elements
Apogee altitude
1,536.938 km
Perigee altitude
1,278.467 km
Semi-major axis
7,785.839 km
Eccentricity
0.0165988
Inclination
101.2145°
RAAN
145.043°
Arg. of periapsis
92.923°
True anomaly
32.58645°
Mean anomaly
31.5727°
Eccentric anomaly
32.07777°
Mean motion
3.15926 °/min
BSTAR
0.0028967
Orbital period
113.95 mins
Loading maneuver chart data...
Loading SW <> Apogee altitude chart data...
Loading historical data...
Loading historical data...
Loading historical data...
Loading historical data...
Loading historical data...
Loading historical data...
Loading historical data...

DELTA 1 DEB Visibility forecast

Observer location: undefined°, undefined°

Span
Click to sort rows by Start time (UTC) header in descending order
Start Az.
Max El. time (UTC)
Max El. Az.
Max El.
End time (UTC)
End Az.
10 mins2025-05-09 12:29:30.933Z51.521° ENE2025-05-09 12:34:30.933Z95.892° ESE19.477°2025-05-09 12:39:30.933Z137.559° SSE
14 mins2025-05-09 14:20:30.933Z11.947° NNE2025-05-09 14:26:30.933Z315.712° NNW43.625°2025-05-09 14:34:30.933Z207.377° SW
6 mins2025-05-09 16:15:30.933Z328.561° NNW2025-05-09 16:17:30.933Z311.329° NW14.532°2025-05-09 16:21:30.933Z278.869° WNW
10 mins2025-05-09 23:24:30.933Z104.693° ESE2025-05-09 23:29:30.933Z56.407° ENE24.518°2025-05-09 23:34:30.933Z9.32° NNE
13 mins2025-05-10 01:14:30.933Z177.492° S2025-05-10 01:20:30.933Z241.483° WSW41.736°2025-05-10 01:27:30.933Z335.478° NNW
|